STARLINK-31977, 59892

Orbit data source: Space-Track

STARLINK-31977, 59892 is a payload satellite owned by SpaceX/Seattle (US) in LEO that was launched on Tue, 28 May 2024 UTC via an FALCON 9 launch vehicle from the Air Force Eastern Test Range (AFETR). Payload-class satellites include a variety of spacecraft equipped with specific instruments for various scientific and technological missions. These include communications satellites like Starlink; space stations such as the ISS; scientific satellites like the Hubble; Earth observation satellites from companies like Planet Labs, Umbra, and HawkEye 360; GPS; miniature CubeSats for education and research; and military/defense satellites.

Loading next visibility...
Identifier
59892, 2024-100H
Orbit
LEO
Country
Flag of USUS
Related business
Manufacturer
SpaceX/Seattle
Mission
Operational Commercial Communications
Bus & Motor
STARLINK V2M, Unknown motor
Mass
730 kg wet, ~700 kg dry
Launch date (UTC)
2024-05-28 (2 years ago)
Launch vehicle
FALCON 9
Launch site
Air Force Eastern Test Range (AFETR)
Object type
Payload
Rocket body
Debris
Shape & HBR
Box + 2 Pan, 17.7 m
Radar Cross Section
33.884 m², Large (>1 m²)

Expand to show TLE details & history
Last TLE update: 3 days ago

TLE from 3 days ago
0 STARLINK-31977
1 59892U 24100H   26170.71315682  .00002269  00000-0  91910-4 0  9992
2 59892  43.0018 261.9934 0001048 262.1703  97.9030 15.27588044116841
Epoch: 2026-06-19T17:06Z
TLE epoch observation values (Epoch: 2026-06-19T17:06:56.749Z)
Latitude
0.00001°
Longitude
97.31877°
Altitude
482.9 km
Speed
7.626 km/s
True Right ascension
17h 27m 58s
True Declination
0° 00' 00"
Sunlit
Object was in full shadow at epoch
Visualization orbit readout
Latitude
Unknown
Longitude
Unknown
Altitude
Unknown
Speed
Unknown
Apparent Right ascension
Unknown
Apparent Declination
Unknown
Sunlit
N/A
Visualization observer readout
Local Sidereal Time
23:19:52
Azimuth
Unknown
Elevation
Unknown
Doppler factor
Unknown
Orbital elements
Apogee altitude
485.689 km
Perigee altitude
484.251 km
Semi-major axis
6,863.107 km
Eccentricity
0.0001
Inclination
43.0018°
RAAN
261.9934°
Arg. of periapsis
262.1703°
True anomaly
97.91489°
Mean anomaly
97.903°
Eccentric anomaly
97.90895°
Mean motion
3.81735 °/min
Orbital period
94.31 mins
BSTAR
0.00009191
Loading maneuver chart data...
Computing Atmospheric mass density...
Loading historical data...
Loading historical data...
Loading historical data...
Loading historical data...
Loading historical data...
Loading historical data...
Loading historical data...

Documentation

Showing up to 5 results
|